EW8094 Weather Reports


Display with metric or nautical units.
time (UTC)temp
F
wind
direction
speed
MPH
gust
MPH
rain 1hr
in
rain 24hr
in
rain mn
in
humidity
%
barometer
mb
20180920071400 63 155 0.0 1.0 0.00 0.00 0.00 65 1008.6
20180920070859 64 155 0.0 1.0 0.00 0.00 0.00 65 1008.6
20180920070359 64 155 0.0 1.0 0.00 0.00 0.00 64 1008.6
20180920065859 64 155 1.0 2.0 0.00 0.00 0.00 64 1008.6
20180920065359 64 155 1.0 2.0 0.00 0.00 0.00 63 1008.6
20180920064900 64 155 0.0 1.0 0.00 0.00 0.00 63 1008.6
20180920064400 65 155 0.0 2.0 0.00 0.00 0.00 63 1008.6
20180920063900 65 155 0.0 2.0 0.00 0.00 0.00 62 1008.6
20180920063400 65 155 1.0 5.0 0.00 0.00 0.00 62 1008.6
20180920062859 65 155 1.0 5.0 0.00 0.00 0.00 62 1008.5
20180920062359 65 157 1.0 4.0 0.00 0.00 0.00 62 1008.6
20180920061900 65 169 1.0 4.0 0.00 0.00 0.00 61 1008.5
20180920061400 65 275 0.0 2.0 0.00 0.00 0.00 61 1008.5
20180920060900 65 275 0.0 1.0 0.00 0.00 0.00 61 1008.5
20180920060400 66 275 0.0 1.0 0.00 0.00 0.00 61 1008.5
20180920055901 66 275 0.0 1.0 0.00 0.00 0.00 61 1008.4
20180920055357 66 275 0.0 1.0 0.00 0.00 0.00 62 1008.4
20180920054857 66 275 0.0 1.0 0.00 0.00 0.00 61 1008.5
20180920054355 66 275 0.0 1.0 0.00 0.00 0.00 61 1008.5
20180920053856 67 275 0.0 1.0 0.00 0.00 0.00 60 1008.4
20180920053354 67 275 0.0 0.0 0.00 0.00 0.00 59 1008.4
20180920052853 67 275 0.0 0.0 0.00 0.00 0.00 58 1008.4
20180920052354 67 275 0.0 0.0 0.00 0.00 0.00 58 1008.5
20180920051854 67 275 0.0 0.0 0.00 0.00 0.00 57 1008.5
20180920051351 68 275 0.0 0.0 0.00 0.00 0.00 57 1008.5
20180920050851 68 275 0.0 1.0 0.00 0.00 0.00 56 1008.6
20180920050351 68 275 0.0 1.0 0.00 0.00 0.00 56 1008.6
20180920045853 68 275 0.0 1.0 0.00 0.00 0.00 56 1008.5
20180920045352 69 275 0.0 1.0 0.00 0.00 0.00 55 1008.6
20180920044852 69 275 0.0 1.0 0.00 0.00 0.00 54 1008.5
20180920044352 69 275 0.0 1.0 0.00 0.00 0.00 53 1008.5
20180920043852 69 275 0.0 1.0 0.00 0.00 0.00 52 1008.5
20180920043352 69 275 0.0 1.0 0.00 0.00 0.00 52 1008.5
20180920042851 70 275 0.0 1.0 0.00 0.00 0.00 51 1008.4
20180920042352 70 275 0.0 0.0 0.00 0.00 0.00 50 1008.4
20180920041852 70 275 0.0 1.0 0.00 0.00 0.00 50 1008.4
20180920041352 70 275 0.0 1.0 0.00 0.00 0.00 50 1008.4
20180920040852 71 275 0.0 1.0 0.00 0.00 0.00 50 1008.4
20180920040350 71 275 1.0 2.0 0.00 0.00 0.00 50 1008.3
20180920035850 71 275 1.0 2.0 0.00 0.00 0.00 50 1008.4
20180920035350 71 275 0.0 1.0 0.00 0.00 0.00 50 1008.3
20180920034850 71 275 0.0 0.0 0.00 0.00 0.00 48 1008.3
20180920034348 72 275 0.0 0.0 0.00 0.00 0.00 48 1008.2
20180920033848 72 275 0.0 0.0 0.00 0.00 0.00 48 1008.1
20180920033347 72 275 0.0 0.0 0.00 0.00 0.00 48 1008.0
20180920032848 73 275 0.0 1.0 0.00 0.00 0.00 47 1008.0
20180920032348 73 275 0.0 1.0 0.00 0.00 0.00 48 1007.9
20180920031848 73 275 0.0 1.0 0.00 0.00 0.00 48 1007.8
20180920031347 73 275 0.0 1.0 0.00 0.00 0.00 48 1007.8
20180920030848 74 275 0.0 1.0 0.00 0.00 0.00 47 1007.7
20180920030346 74 275 0.0 1.0 0.00 0.00 0.00 47 1007.7
20180920025847 74 275 0.0 2.0 0.00 0.00 0.00 47 1007.6
20180920025344 75 275 1.0 2.0 0.00 0.00 0.00 47 1007.6
20180920024843 75 275 1.0 2.0 0.00 0.00 0.00 46 1007.6
20180920024343 76 275 0.0 1.0 0.00 0.00 0.00 46 1007.5
20180920023844 76 275 1.0 1.0 0.00 0.00 0.00 45 1007.5
20180920023344 76 275 1.0 1.0 0.00 0.00 0.00 45 1007.5
20180920022844 77 275 0.0 1.0 0.00 0.00 0.00 44 1007.5
20180920022343 77 275 0.0 1.0 0.00 0.00 0.00 43 1007.4
20180920021839 78 275 0.0 1.0 0.00 0.00 0.00 42 1007.3
20180920021339 78 275 0.0 1.0 0.00 0.00 0.00 42 1007.3
20180920020838 78 275 0.0 2.0 0.00 0.00 0.00 41 1007.4
20180920020338 79 275 1.0 3.0 0.00 0.00 0.00 41 1007.3
20180920015837 79 275 1.0 3.0 0.00 0.00 0.00 40 1007.2
20180920015338 80 273 2.0 3.0 0.00 0.00 0.00 40 1007.3
20180920014838 80 273 2.0 4.0 0.00 0.00 0.00 40 1007.3
20180920014336 80 270 2.0 4.0 0.00 0.00 0.00 39 1007.3
20180920013835 81 263 2.0 4.0 0.00 0.00 0.00 39 1007.2
20180920013335 81 282 2.0 4.0 0.00 0.00 0.00 38 1007.2
20180920012836 81 288 2.0 4.0 0.00 0.00 0.00 38 1007.1
20180920012334 82 281 2.0 6.0 0.00 0.00 0.00 37 1007.1
20180920011834 82 281 3.0 6.0 0.00 0.00 0.00 36 1007.1
20180920011334 82 275 3.0 6.0 0.00 0.00 0.00 36 1007.1
20180920010832 82 256 4.0 8.0 0.00 0.00 0.00 36 1007.1
20180920010332 83 261 4.0 8.0 0.00 0.00 0.00 35 1007.1
20180920005832 83 248 4.0 7.0 0.00 0.00 0.00 34 1007.1
20180920005332 83 278 4.0 9.0 0.00 0.00 0.00 34 1007.1
20180920004832 83 250 5.0 9.0 0.00 0.00 0.00 33 1007.1
20180920004332 83 263 4.0 8.0 0.00 0.00 0.00 33 1007.0
20180920003831 84 302 4.0 8.0 0.00 0.00 0.00 33 1007.0
20180920003332 84 270 4.0 8.0 0.00 0.00 0.00 33 1007.0
20180920002830 84 271 4.0 8.0 0.00 0.00 0.00 33 1007.0
20180920002331 84 313 4.0 9.0 0.00 0.00 0.00 33 1007.1
20180920001830 84 273 4.0 9.0 0.00 0.00 0.00 32 1007.1
20180920001329 85 250 4.0 8.0 0.00 0.00 0.00 32 1007.1
20180920000830 85 276 5.0 10.0 0.00 0.00 0.00 32 1007.1
20180920000330 85 276 5.0 10.0 0.00 0.00 0.00 32 1007.1
20180919235830 85 281 5.0 10.0 0.00 0.00 0.00 31 1007.2
20180919235330 86 292 5.0 9.0 0.00 0.00 0.00 31 1007.2
20180919234830 86 320 4.0 8.0 0.00 0.00 0.00 31 1007.3
20180919234331 86 306 4.0 9.0 0.00 0.00 0.00 30 1007.3
20180919233829 86 306 5.0 10.0 0.00 0.00 0.00 31 1007.3
20180919233329 86 271 5.0 10.0 0.00 0.00 0.00 30 1007.4
20180919232828 87 279 5.0 10.0 0.00 0.00 0.00 30 1007.5
20180919232328 87 285 5.0 10.0 0.00 0.00 0.00 30 1007.5
20180919231828 87 242 4.0 8.0 0.00 0.00 0.00 31 1007.6
20180919231328 87 277 4.0 9.0 0.00 0.00 0.00 32 1007.6
20180919230828 87 333 4.0 9.0 0.00 0.00 0.00 30 1007.7
20180919230329 87 292 5.0 12.0 0.00 0.00 0.00 31 1007.7
20180919225828 87 214 5.0 12.0 0.00 0.00 0.00 31 1007.8
20180919225328 87 262 4.0 10.0 0.00 0.00 0.00 31 1007.9
20180919224826 87 294 5.0 9.0 0.00 0.00 0.00 30 1007.9
20180919224326 87 288 4.0 9.0 0.00 0.00 0.00 32 1008.0
20180919223826 87 282 4.0 9.0 0.00 0.00 0.00 32 1008.0
20180919223326 87 229 4.0 8.0 0.00 0.00 0.00 32 1008.0
20180919222826 87 315 5.0 11.0 0.00 0.00 0.00 32 1008.0
20180919222327 87 296 5.0 11.0 0.00 0.00 0.00 31 1008.1
20180919221826 87 327 5.0 12.0 0.00 0.00 0.00 32 1008.2
20180919221326 87 277 5.0 12.0 0.00 0.00 0.00 32 1008.2
20180919220826 87 313 5.0 9.0 0.00 0.00 0.00 32 1008.2
20180919220326 87 295 5.0 9.0 0.00 0.00 0.00 34 1008.3
20180919215826 87 300 4.0 9.0 0.00 0.00 0.00 34 1008.3
20180919215324 87 261 4.0 9.0 0.00 0.00 0.00 34 1008.4
20180919214825 87 290 4.0 11.0 0.00 0.00 0.00 34 1008.4
20180919214324 87 271 4.0 11.0 0.00 0.00 0.00 36 1008.5
20180919213824 87 227 4.0 9.0 0.00 0.00 0.00 37 1008.5
20180919213324 87 292 3.0 9.0 0.00 0.00 0.00 35 1008.6
20180919212824 86 259 4.0 9.0 0.00 0.00 0.00 36 1008.7
20180919212324 86 331 4.0 8.0 0.00 0.00 0.00 37 1008.7
20180919211824 86 297 4.0 8.0 0.00 0.00 0.00 36 1008.7
20180919211324 85 258 5.0 10.0 0.00 0.00 0.00 36 1008.8
20180919210825 85 279 4.0 10.0 0.00 0.00 0.00 37 1008.9
20180919210321 85 295 4.0 8.0 0.00 0.00 0.00 37 1008.9
20180919205822 85 286 4.0 11.0 0.00 0.00 0.00 37 1009.0
20180919205322 85 251 4.0 12.0 0.00 0.00 0.00 39 1009.1
20180919204822 85 285 4.0 12.0 0.00 0.00 0.00 39 1009.2
20180919204322 85 269 3.0 10.0 0.00 0.00 0.00 36 1009.2
20180919203822 84 242 2.0 10.0 0.00 0.00 0.00 37 1009.3
20180919203322 84 255 2.0 8.0 0.00 0.00 0.00 37 1009.4
20180919202823 84 246 3.0 8.0 0.00 0.00 0.00 40 1009.5
20180919202322 84 283 3.0 9.0 0.00 0.00 0.00 40 1009.5
20180919201822 84 157 3.0 9.0 0.00 0.00 0.00 40 1009.6
20180919201320 84 280 2.0 7.0 0.00 0.00 0.00 40 1009.7
20180919200820 84 265 3.0 8.0 0.00 0.00 0.00 41 1009.7
20180919200320 83 276 3.0 8.0 0.00 0.00 0.00 44 1009.8
20180919195818 83 248 3.0 8.0 0.00 0.00 0.00 43 1009.9
20180919195318 83 275 3.0 8.0 0.00 0.00 0.00 43 1009.9
20180919194818 82 298 3.0 8.0 0.00 0.00 0.00 42 1010.0
20180919194319 82 252 3.0 8.0 0.00 0.00 0.00 43 1010.0
20180919193818 82 284 3.0 8.0 0.00 0.00 0.00 42 1010.2
20180919193318 82 265 3.0 7.0 0.00 0.00 0.00 46 1010.2
20180919192818 81 259 2.0 7.0 0.00 0.00 0.00 43 1010.2
20180919192317 81 243 2.0 7.0 0.00 0.00 0.00 45 1010.3
20180919191817 80 254 3.0 7.0 0.00 0.00 0.00 44 1010.4
20180919191316 80 264 2.0 6.0 0.00 0.00 0.00 46 1010.4
20180919190816 80 163 2.0 5.0 0.00 0.00 0.00 48 1010.5
20180919190317 79 293 2.0 5.0 0.00 0.00 0.00 44 1010.5
20180919185816 79 311 2.0 5.0 0.00 0.00 0.00 46 1010.6
20180919185316 78 178 2.0 6.0 0.00 0.00 0.00 48 1010.7
20180919184816 78 209 2.0 6.0 0.00 0.00 0.00 48 1010.7
20180919184316 78 248 2.0 6.0 0.00 0.00 0.00 48 1010.8
20180919183816 77 170 2.0 6.0 0.00 0.00 0.00 50 1010.8
20180919183316 77 136 2.0 6.0 0.00 0.00 0.00 51 1010.9
20180919182814 76 205 2.0 6.0 0.00 0.00 0.00 52 1010.9
20180919182315 76 225 2.0 4.0 0.00 0.00 0.00 51 1010.9
20180919181813 75 180 2.0 6.0 0.00 0.00 0.00 52 1011.0
20180919181312 75 190 2.0 6.0 0.00 0.00 0.00 53 1011.0
20180919180812 74 171 2.0 6.0 0.00 0.00 0.00 56 1011.1
20180919180312 74 163 2.0 6.0 0.00 0.00 0.00 54 1011.2
20180919175810 73 158 1.0 4.0 0.00 0.00 0.00 54 1011.3
20180919175308 72 165 1.0 4.0 0.00 0.00 0.00 57 1011.3
20180919174808 71 257 1.0 5.0 0.00 0.00 0.00 58 1011.3
20180919174308 70 256 1.0 5.0 0.00 0.00 0.00 60 1011.4
20180919173806 70 138 1.0 5.0 0.00 0.00 0.00 62 1011.4
20180919173307 69 199 2.0 5.0 0.00 0.00 0.00 62 1011.4
20180919172806 68 178 2.0 5.0 0.00 0.00 0.00 63 1011.5
20180919172304 68 171 2.0 4.0 0.00 0.00 0.00 64 1011.5
20180919171804 67 120 1.0 4.0 0.00 0.00 0.00 64 1011.5
20180919171304 67 175 2.0 4.0 0.00 0.00 0.00 66 1011.5
20180919170802 66 187 2.0 5.0 0.00 0.00 0.00 66 1011.6
20180919170302 65 150 1.0 5.0 0.00 0.00 0.00 68 1011.6
20180919165803 65 89 1.0 2.0 0.00 0.00 0.00 70 1011.5
20180919165302 65 186 1.0 3.0 0.00 0.00 0.00 69 1011.6
20180919164801 64 188 1.0 4.0 0.00 0.00 0.00 70 1011.6
20180919164300 64 152 1.0 4.0 0.00 0.00 0.00 71 1011.7
20180919163800 63 146 2.0 5.0 0.00 0.00 0.00 72 1011.7
20180919163300 63 108 2.0 5.0 0.00 0.00 0.00 73 1011.5
20180919162801 62 171 1.0 4.0 0.00 0.00 0.00 74 1011.6
20180919162300 62 179 1.0 4.0 0.00 0.00 0.00 75 1011.8
20180919161800 62 159 2.0 4.0 0.00 0.00 0.00 75 1011.7
20180919161258 61 165 2.0 4.0 0.00 0.00 0.00 75 1011.7
20180919160758 61 173 1.0 3.0 0.00 0.00 0.00 77 1011.6
20180919160258 60 180 0.0 2.0 0.00 0.00 0.00 77 1011.5
20180919155756 60 184 0.0 2.0 0.00 0.00 0.00 77 1011.5
20180919155258 60 165 1.0 4.0 0.00 0.00 0.00 78 1011.4
20180919154756 60 165 2.0 4.0 0.00 0.00 0.00 79 1011.4
20180919154256 59 169 1.0 4.0 0.00 0.00 0.00 80 1011.4
20180919153756 59 169 1.0 2.0 0.00 0.00 0.00 80 1011.4
20180919153256 59 163 1.0 4.0 0.00 0.00 0.00 81 1011.4
20180919152756 58 178 1.0 4.0 0.00 0.00 0.00 81 1011.3
20180919152256 58 168 2.0 4.0 0.00 0.00 0.00 81 1011.3
20180919151756 58 168 2.0 4.0 0.00 0.00 0.00 81 1011.3
20180919151255 58 174 2.0 4.0 0.00 0.00 0.00 81 1011.2
20180919150754 57 167 2.0 4.0 0.00 0.00 0.00 82 1011.2
20180919150254 57 166 1.0 3.0 0.00 0.00 0.00 82 1011.2
20180919145754 57 166 1.0 4.0 0.00 0.00 0.00 82 1011.1
20180919145254 57 166 1.0 4.0 0.00 0.00 0.00 82 1011.1
20180919144754 56 162 1.0 4.0 0.00 0.00 0.00 82 1011.1
20180919144253 56 158 1.0 4.0 0.00 0.00 0.00 82 1011.0
20180919143754 56 171 1.0 3.0 0.00 0.00 0.00 81 1011.0
20180919143253 56 175 1.0 3.0 0.00 0.00 0.00 81 1011.0
20180919142753 56 168 1.0 3.0 0.00 0.00 0.00 81 1011.0
20180919142253 56 154 1.0 2.0 0.00 0.00 0.00 80 1010.9
20180919141752 56 154 1.0 2.0 0.00 0.00 0.00 80 1010.9
20180919141252 56 154 1.0 4.0 0.00 0.00 0.00 80 1010.9
20180919140752 56 154 2.0 4.0 0.00 0.00 0.00 79 1011.0
20180919140250 56 143 1.0 3.0 0.00 0.00 0.00 79 1010.8
20180919135751 56 148 1.0 3.0 0.00 0.00 0.00 78 1010.8
20180919135251 56 144 2.0 7.0 0.00 0.00 0.00 78 1010.7
20180919134750 56 143 2.0 8.0 0.00 0.00 0.00 79 1010.7
20180919134248 56 142 1.0 8.0 0.00 0.00 0.00 79 1010.6
20180919133748 56 148 2.0 6.0 0.00 0.00 0.00 80 1010.5
20180919133246 56 140 2.0 6.0 0.00 0.00 0.00 80 1010.5
20180919132747 56 146 2.0 7.0 0.00 0.00 0.00 80 1010.5
20180919132245 55 156 2.0 7.0 0.00 0.00 0.00 80 1010.4
20180919131745 55 141 1.0 6.0 0.00 0.00 0.00 80 1010.4
20180919131243 55 135 1.0 3.0 0.00 0.00 0.00 80 1010.4
20180919130739 55 134 1.0 3.0 0.00 0.00 0.00 79 1010.3
20180919130236 56 139 1.0 3.0 0.00 0.00 0.00 78 1010.3
20180919125736 56 144 0.0 2.0 0.00 0.00 0.00 78 1010.2
20180919125236 56 144 0.0 2.0 0.00 0.00 0.00 78 1010.2
20180919124736 56 144 0.0 2.0 0.00 0.00 0.00 78 1010.0
20180919124237 56 144 0.0 1.0 0.00 0.00 0.00 77 1010.0
20180919123736 56 144 0.0 0.0 0.00 0.00 0.00 77 1010.0
20180919123238 56 144 0.0 0.0 0.00 0.00 0.00 77 1009.9
20180919122736 56 144 0.0 0.0 0.00 0.00 0.00 76 1009.9
20180919122236 57 144 0.0 1.0 0.00 0.00 0.00 75 1009.9
20180919121737 57 144 0.0 1.0 0.00 0.00 0.00 75 1009.7
20180919121237 57 144 0.0 1.0 0.00 0.00 0.00 74 1009.8
20180919120736 57 144 0.0 1.0 0.00 0.00 0.00 73 1009.8
20180919120236 58 144 0.0 0.0 0.00 0.00 0.00 74 1009.8
20180919115737 58 144 0.0 2.0 0.00 0.00 0.00 75 1009.7
20180919115236 58 144 1.0 4.0 0.00 0.00 0.00 76 1009.7
20180919114736 57 144 2.0 4.0 0.00 0.00 0.00 75 1009.7
20180919114237 57 144 2.0 3.0 0.00 0.00 0.00 76 1009.8
20180919113736 57 138 1.0 3.0 0.00 0.00 0.00 76 1009.7
20180919113237 57 160 1.0 2.0 0.00 0.00 0.00 76 1009.7
20180919112737 57 160 1.0 2.0 0.00 0.00 0.00 77 1009.8
20180919112236 57 164 1.0 2.0 0.00 0.00 0.00 77 1009.7
20180919111737 57 165 1.0 1.0 0.00 0.00 0.00 77 1009.7
20180919111236 58 165 0.0 1.0 0.00 0.00 0.00 76 1009.8
20180919110734 58 165 0.0 1.0 0.00 0.00 0.00 76 1009.8
20180919110234 58 165 0.0 1.0 0.00 0.00 0.00 76 1009.8
20180919105734 58 165 0.0 2.0 0.00 0.00 0.00 75 1009.8
20180919105235 58 165 0.0 2.0 0.00 0.00 0.00 76 1009.8
20180919104735 58 165 1.0 2.0 0.00 0.00 0.00 75 1009.8
20180919104234 58 165 1.0 2.0 0.00 0.00 0.00 75 1009.8
20180919103733 58 165 0.0 1.0 0.00 0.00 0.00 75 1009.8
20180919103232 58 165 0.0 1.0 0.00 0.00 0.00 75 1009.8
20180919102734 58 165 0.0 1.0 0.00 0.00 0.00 75 1009.8
20180919102232 58 165 0.0 1.0 0.00 0.00 0.00 75 1009.9
20180919101732 58 165 0.0 1.0 0.00 0.00 0.00 75 1009.9
20180919101233 58 165 0.0 1.0 0.00 0.00 0.00 75 1010.0
20180919100733 58 165 0.0 1.0 0.00 0.00 0.00 75 1009.9
20180919100232 58 165 1.0 2.0 0.00 0.00 0.00 75 1009.9
20180919095732 59 165 1.0 2.0 0.00 0.00 0.00 75 1010.0
20180919095232 59 165 0.0 1.0 0.00 0.00 0.00 74 1010.0
20180919094733 60 165 0.0 1.0 0.00 0.00 0.00 74 1010.0
20180919094233 60 165 0.0 1.0 0.00 0.00 0.00 73 1010.0
20180919093734 60 165 1.0 2.0 0.00 0.00 0.00 74 1010.0
20180919093233 60 165 1.0 2.0 0.00 0.00 0.00 75 1010.0
20180919092733 60 165 1.0 2.0 0.00 0.00 0.00 73 1009.9
20180919092233 60 165 1.0 2.0 0.00 0.00 0.00 73 1010.0
20180919091733 61 165 0.0 1.0 0.00 0.00 0.00 73 1009.9
20180919091232 61 165 0.0 1.0 0.00 0.00 0.00 74 1009.9
20180919090732 60 165 1.0 1.0 0.00 0.00 0.00 74 1009.9
20180919090232 60 165 1.0 2.0 0.00 0.00 0.00 75 1009.9
20180919085732 60 165 0.0 2.0 0.00 0.00 0.00 75 1009.9
20180919085232 60 165 0.0 2.0 0.00 0.00 0.00 74 1009.8
20180919084733 60 165 0.0 2.0 0.00 0.00 0.00 75 1009.9
20180919084233 60 165 0.0 1.0 0.00 0.00 0.00 74 1010.0
20180919083733 61 165 0.0 1.0 0.00 0.00 0.00 73 1010.0
20180919083232 61 165 0.0 1.0 0.00 0.00 0.00 73 1010.0
20180919082732 61 165 0.0 1.0 0.00 0.00 0.00 72 1010.0
20180919082232 62 165 0.0 1.0 0.00 0.00 0.00 72 1010.0
20180919081732 62 165 0.0 1.0 0.00 0.00 0.00 72 1010.0
20180919081232 62 165 0.0 1.0 0.00 0.00 0.00 74 1009.9
20180919080736 62 165 1.0 2.0 0.00 0.00 0.00 73 1009.9
20180919080233 62 165 1.0 2.0 0.00 0.00 0.00 74 1009.9
20180919075733 62 165 0.0 1.0 0.00 0.00 0.00 73 1010.0
20180919075233 62 165 0.0 1.0 0.00 0.00 0.00 73 1010.0
20180919074733 62 165 0.0 1.0 0.00 0.00 0.00 73 1010.0
20180919074233 62 165 0.0 1.0 0.00 0.00 0.00 73 1009.9
20180919073733 62 165 0.0 1.0 0.00 0.00 0.00 72 1010.0
20180919073232 62 165 0.0 1.0 0.00 0.00 0.00 72 1010.0
20180919072729 63 165 0.0 1.0 0.00 0.00 0.00 72 1009.9
20180919072230 63 165 0.0 1.0 0.00 0.00 0.00 70 1009.9
20180919071728 64 165 1.0 2.0 0.00 0.00 0.00 68 1009.9